Погода в Атке

Россия / Магаданская область     60°50′06″N   151°47′20″E
темп.,
°C
ветер,
м/с
пор.,
м/с
влажн.,
%
обл.,
%
осадки,
мм/ч
давл.,
гПа
погр.,
м
27 января, чт
чт2723:00−29с3493100 0.0 102382
02:00−35с339765 0.0 102627
05:00−37с3310072 0.0 102822
08:00−38ссз3310097 0.0 102922
11:00−36ссз349975 0.0 102851
14:00−31с4696100 0.0 1024134
17:00−33с459696 0.0 102569
20:00−35ссз4598100 0.0 102561
28 января, пт
пт2823:00−30с5898100 0.2 1021221
02:00−30с6895100 0.3 1020226
05:00−29с6995100 0.4 1018227
08:00−30с6995100 0.1 1018188
11:00−28с71096100 0.3 1017235
14:00−27с799590 0.1 1015228
17:00−27с6896100 0.2 1016161
20:00−26с6895100 0.1 1016143
29 января, сб
сб2923:00−25с5894100 0.1 1016130
02:00−25с5795100 0.0 1015119
05:00−24с5794100 0.0 1014116
08:00−24с5795100 0.0 1014105
11:00−23с4796100 0.0 1014112
14:00−20с6893100 0.0 1012217
17:00−20с6894100 0.0 1013154
20:00−21с5796100 0.1 1015161
30 января, вс
вс3023:00−22с4694100 0.1 101885
02:00−25с339860 0.0 102220
05:00−20с3498100 0.1 102267
08:00−19с3497100 0.3 102280
11:00−20с2397100 0.3 102446
14:00−15с3491100 0.0 1022121
17:00−17с3492100 0.0 102348
20:00−19с3396100 0.0 102538
31 января, пн
пн3123:00−19с349596 0.0 102546
02:00−23с439951 0.0 102633
05:00−25с4310051 0.0 102730
08:00−25с459851 0.0 102741
11:00−25с469851 0.0 102780
14:00−23с5797100 0.0 1026143
17:00−25с5896100 0.0 102896
20:00−25с5897100 0.0 1028113